Hlavní strana
METAR-TAF:

METAR-TAF

Letiště :

Logan County Airport

Lincoln, Illinois, Spojené státy americké

zeměpisná šířka: 40-09-31N, zeměpisná délka: 089-20-06W, výška: 182 m

Aktuální stav počasí

Zpráva byla vytvořena před 15 minutami, v 02:15 UTC
Bezvětří
Teplota 10°C
Vlhkost vzduchu 53%
Tlak 1021 hPa
Viditelnost: 16.1 km
Jasno

METAR: KAAA 140215Z AUTO 00000KT 10SM CLR 10/01 A3015 RMK AO2 T00980008

Čas: 21:30 (02:30 UTC)


TAF: chybějící

Stav a předpovědi počasí z více než 4 000 letišť (zprávy METAR a TAF).

Červené a žluté tečky na mapě představují dostupné meteorologické stanice.

Když kurzor umístíte na tečku, zobrazí se název stanice.

Pak kliknutím zobrazíte stav a předpověď počasí.

Chcete-li změnit mapu, kliknutím na zelené tlačítko se znaménkem +mapu přiblížíte, kliknutím na zelené tlačítko se znaménkem – mapu oddálíte a kliknutím na zelené šipky přejdete na sousední mapy.


METAR-TAF: